sat.trackr.live / text

‹ back to catalog

STARLINK-35024

NORAD 65410 · 2025-192G

PAYLOAD ACTIVE UNKNOWN

§ Identity

Operator
Country
US
Launch date
2025-08-31
Launch site
AFETR
Launch vehicle
Mass (kg)
RCS (m²)

Purposes: comms

External: N2YO · Heavens-Above · Gunter

§ Orbital elements

Epoch: 2026-09-20T02:36:30.312288Z

Period
94.01 min
Inclination
53.1586°
Eccentricity
0.0001494
Mean motion
15.31708883 rev/d
Perigee alt
469.7 km
Apogee alt
471.7 km
Semi-major
6,848.9 km
B*
4.1750e-4
RAAN
47.6642°
Arg perigee
87.5485°
Mean anomaly
272.5688°
Rev number
5,917

§ Raw data

STARLINK-350241 65410U 25192G   26263.10868417  .00012616  00000+0  41750-3 0  99942 65410  53.1586  47.6642 0001494  87.5485 272.5688 15.31708883 59174

JSON: /api/v1/satellites/65410 · /tle

For live sub-satellite position, see the globe view (requires WebGL).

§ Visibility from observer

Set your observer location to see the next 7 days of passes ≥ 10°. The values pass through the URL so the page stays shareable.

No JS? Fill the form by hand. The geolocation button needs JavaScript.